Scappoose, OR

7:32 AM PDT on May 27, 2017 (GMT -0700)
Scappoose Industrial

Weather History for KSPB - February, 2014

Change the Weather History Date:

Saturday, February 15, 2014

  Actual Average Record
Temperature  
Mean Temperature 46 °F -  
Max Temperature 54 °F - 65 °F (2015)
Min Temperature 37 °F - 25 °F (2005)
Degree Days  
Heating Degree Days 19    
Month to date heating degree days 447  
Since 1 July heating degree days 3337  
Cooling Degree Days 0    
Month to date cooling degree days 0  
Year to date cooling degree days 0  
Moisture  
Dew Point 43 °F    
Average Humidity 88    
Maximum Humidity 100    
Minimum Humidity 76    
Precipitation  
Precipitation 1.21 in - 1.51 in (2017)
Month to date precipitation 2.85  
Year to date precipitation 5.50  
Sea Level Pressure  
Sea Level Pressure 29.60 in    
Wind  
Wind Speed 5 mph (SSW)    
Max Wind Speed 30 mph    
Max Gust Speed 46 mph    
Visibility 6 miles    
Events Rain    
T = Trace of Precipitation, MM = Missing Value Source: NWS Daily Summary

Daily Weather History Graph

Daily Weather History Graph

Search for Another Location

Airport or City:

Trip Planner

Search our weather history database for the weather conditions in past years. The results will help you decide how hot, cold, wet, or windy it might be!

Date:

Astronomy

Feb. 15, 2014 Rise Set
Actual Time 7:13 AM PST 5:38 PM PST
Civil Twilight 6:42 AM PST 6:08 PM PST
Nautical Twilight 6:08 AM PST 6:43 PM PST
Astronomical Twilight 5:33 AM PST 7:18 PM PST
Moon 6:49 PM PST (2/15) 7:10 AM PST (2/15)
Length of Visible Light 11h 26m
Length of Day
10h 24m
Full, 99% of the Moon is Illuminated
Feb 15
Full
Feb 22
Last Quarter
Mar 1
New
Mar 8
First Quarter
Mar 16
Full

Hourly Weather History & Observations

Time (PST) Temp. Windchill Dew Point Humidity Pressure Visibility Wind Dir Wind Speed Gust Speed Precip Events Conditions
12:53 AM 41.0 °F 39.0 °F 39.0 °F 93% 29.93 in 10.0 mi West 3.5 mph - N/A   Overcast
1:01 AM 41.0 °F 39.0 °F 39.0 °F 93% 29.92 in 10.0 mi West 3.5 mph - 0.00 in Rain Light Rain
1:39 AM 41.0 °F - 39.9 °F 96% 29.91 in 9.0 mi Calm Calm - 0.00 in Rain Light Rain
1:53 AM 41.0 °F - 39.9 °F 96% 29.90 in 10.0 mi Calm Calm - 0.00 in   Overcast
2:22 AM 41.0 °F - 39.9 °F 96% 29.88 in 10.0 mi Calm Calm - N/A   Overcast
2:44 AM 41.0 °F - 39.9 °F 96% 29.87 in 10.0 mi Calm Calm - N/A   Overcast
2:53 AM 39.9 °F - 39.9 °F 100% 29.87 in 10.0 mi Calm Calm - N/A   Overcast
3:53 AM 41.0 °F - 39.9 °F 96% 29.85 in 10.0 mi Calm Calm - N/A   Overcast
4:22 AM 41.0 °F - 39.9 °F 96% 29.82 in 10.0 mi Calm Calm - N/A   Overcast
4:29 AM 41.0 °F - 39.9 °F 96% 29.82 in 10.0 mi Calm Calm - N/A   Overcast
4:53 AM 41.0 °F - 39.9 °F 96% 29.81 in 7.0 mi Calm Calm - N/A   Overcast
5:25 AM 41.0 °F - 39.9 °F 96% 29.79 in 10.0 mi Calm Calm - 0.00 in   Overcast
5:53 AM 41.0 °F - 39.9 °F 96% 29.77 in 6.0 mi Calm Calm - 0.01 in Rain Light Rain
6:53 AM 41.0 °F 39.0 °F 41.0 °F 100% 29.74 in 10.0 mi West 3.5 mph - 0.03 in Rain Light Rain
7:53 AM 41.0 °F - 41.0 °F 100% 29.69 in 4.0 mi Calm Calm - 0.02 in Rain Light Rain
8:53 AM 43.0 °F 40.3 °F 42.1 °F 97% 29.66 in 5.0 mi SSW 4.6 mph - 0.04 in Rain Light Rain
9:21 AM 44.1 °F 42.5 °F 42.1 °F 93% 29.64 in 6.0 mi South 3.5 mph - 0.03 in Rain Light Rain
9:48 AM 44.6 °F 43.1 °F 42.8 °F 93% 29.62 in 4.0 mi SSW 3.5 mph - 0.07 in Rain Light Rain
9:53 AM 44.1 °F 41.5 °F 42.1 °F 93% 29.62 in 4.0 mi SSW 4.6 mph - 0.07 in Rain Light Rain
10:23 AM 44.1 °F - 43.0 °F 96% 29.61 in 3.0 mi Calm Calm - 0.07 in Rain Rain
10:53 AM 44.1 °F - 43.0 °F 96% 29.59 in 4.0 mi Calm Calm - 0.14 in Rain Light Rain
11:33 AM 44.1 °F 41.5 °F 43.0 °F 96% 29.57 in 2.5 mi SW 4.6 mph - 0.05 in Rain Light Rain
11:41 AM 45.0 °F 43.5 °F 43.0 °F 93% 29.56 in 3.0 mi South 3.5 mph - 0.06 in Rain Light Rain
11:53 AM 45.0 °F - 44.1 °F 97% 29.55 in 3.0 mi Calm Calm - 0.08 in Rain Light Rain
12:53 PM 45.0 °F 43.5 °F 44.1 °F 97% 29.50 in 2.5 mi Variable 3.5 mph - 0.10 in Rain Rain
1:21 PM 46.0 °F 41.9 °F 44.1 °F 93% 29.47 in 4.0 mi SSE 8.1 mph - 0.05 in Rain Light Rain
1:48 PM 46.4 °F 43.5 °F 44.6 °F 93% 29.46 in 2.5 mi SSE 5.8 mph - 0.10 in Rain Rain
1:53 PM 46.0 °F 42.5 °F 45.0 °F 96% 29.45 in 3.0 mi SSE 6.9 mph - 0.11 in Rain Light Rain
2:42 PM 46.0 °F 40.6 °F 44.1 °F 93% 29.42 in 8.0 mi South 11.5 mph - 0.04 in Rain Light Rain
2:53 PM 46.0 °F 41.0 °F 45.0 °F 96% 29.41 in 9.0 mi South 10.4 mph 17.3 mph 0.04 in Rain Light Rain
3:12 PM 46.0 °F 43.1 °F 45.0 °F 96% 29.39 in 4.0 mi South 5.8 mph - 0.04 in Rain Rain
3:31 PM 46.9 °F - 46.0 °F 97% 29.37 in 7.0 mi SSE 6.9 mph - 0.05 in Rain Light Rain
3:45 PM 46.9 °F - 46.0 °F 97% 29.36 in 2.0 mi South 9.2 mph - 0.07 in Rain Light Rain
3:51 PM 48.2 °F - 46.4 °F 93% 29.36 in 1.8 mi South 8.1 mph - 0.09 in Rain Rain
3:52 PM 48.0 °F - 46.9 °F 96% 29.36 in 1.8 mi South 8.1 mph - 0.09 in Rain Rain
3:57 PM 48.0 °F - 46.9 °F 96% 29.35 in 3.0 mi SSE 11.5 mph - 0.01 in Rain Rain
4:09 PM 48.9 °F - 48.0 °F 97% 29.35 in 3.0 mi South 10.4 mph - 0.06 in Rain Rain
4:17 PM 48.0 °F - 48.0 °F 100% 29.35 in 2.5 mi South 6.9 mph - 0.10 in Rain Heavy Rain
4:26 PM 48.9 °F - 48.0 °F 97% 29.35 in 1.5 mi SSE 11.5 mph 17.3 mph 0.18 in Rain Heavy Rain
4:37 PM 50.0 °F - 48.9 °F 96% 29.35 in 2.0 mi SSE 8.1 mph 21.9 mph 0.25 in Rain Rain
4:49 PM 50.0 °F - 48.2 °F 94% 29.37 in 2.0 mi SSW 6.9 mph - 0.30 in Rain Heavy Rain
4:53 PM 52.0 °F - 50.0 °F 93% 29.38 in 2.5 mi SW 27.6 mph 46.0 mph 0.31 in Rain Rain
5:01 PM 54.0 °F - 48.9 °F 83% 29.38 in 7.0 mi SSW 19.6 mph 46.0 mph 0.01 in Rain Light Rain
5:53 PM 52.0 °F - 45.0 °F 77% 29.45 in 8.0 mi SW 12.7 mph 20.7 mph 0.02 in Rain Rain
6:53 PM 48.9 °F - 39.9 °F 71% 29.57 in 10.0 mi WSW 13.8 mph 20.7 mph 0.03 in   Overcast
7:53 PM 46.0 °F 43.9 °F 39.0 °F 76% 29.63 in 10.0 mi SSW 4.6 mph - 0.00 in   Scattered Clouds
8:41 PM 44.1 °F 39.0 °F 39.0 °F 82% 29.67 in 4.0 mi SW 9.2 mph 21.9 mph 0.04 in Rain Light Rain
8:53 PM 43.0 °F 36.8 °F 39.0 °F 86% 29.66 in 6.0 mi SSW 11.5 mph - 0.06 in Rain Light Rain
9:16 PM 42.1 °F 39.2 °F 39.0 °F 89% 29.69 in 10.0 mi WSW 4.6 mph - 0.00 in   Overcast
9:53 PM 42.1 °F 39.2 °F 39.0 °F 89% 29.72 in 10.0 mi SSE 4.6 mph - 0.04 in   Overcast
10:53 PM 37.9 °F 34.4 °F 35.1 °F 89% 29.76 in 10.0 mi ESE 4.6 mph - 0.02 in   Clear
11:53 PM 37.9 °F - 36.0 °F 93% 29.77 in 10.0 mi Calm Calm - N/A   Partly Cloudy